Location: Street
(51.1247°N, 2.7429°W)
Time: 02:46:13
(UTC+00:00)

deb Explorer IX - Pass Details

Date: 12 December 2020
Orbit: 536 x 1104 km, 38.8° (Epoch: 20 January)

Event Time Altitude Azimuth Distance (km) Brightness Sun altitude
Rises 13:07:12 0° 245° (WSW) 3,907 ? 14.5°
Reaches altitude 10° 13:10:19 10° 235° (SW) 2,959 ? 14.4°
Maximum altitude 13:16:28 30° 178° (S) 1,831 ? 14.1°
Drops below altitude 10° 13:22:23 10° 121° (ESE) 2,829 ? 13.8°
Sets 13:25:18 0° 111° (ESE) 3,710 ? 13.7°
